7 * 24
多渠道服务支持
STARLINK-32511 是 SpaceX Starlink 项目中的一颗低轨通信卫星,属于该星座的第三批部署任务。该卫星于2023年发射,运行在约550公里高度的近地轨道,旨在为全球用户提供高速互联网服务。Starlink 卫星采用先进推进系统和激光通信技术,以实现高效的数据传输和网络连接。STARLINK-32511 与其他 Starlink 卫星协同工作,提升网络覆盖和稳定性,尤其在偏远和网络基础设施薄弱地区发挥重要作用。
  
                美国
                (US)
                | 数据来源 | 国际轨道数据 | 
| 星历时间: | 2025-11-03T19:33:29+0800 20小时前 查看轨道信息 | 
| 半长轴: | 6853.4km | 
| 偏心率: | 0.0001425 | 
| 轨道倾角: | 53.162° | 
| 近地点辐角 | 73.822° | 
| 升交点赤经 | 327.556° | 
| 平近点角 | 286.294° | 
| 近地点: | 474.288km | 
| 远地点: | 476.242km | 
| 周期: | 94.106分钟 | 
| 每日圈数: | 15.30184 |